Regional Weather Roundup
Issued by NWS

Home | Current Version | Previous Version | Graphics & Text | Print | Product List | Glossary Off
Versions: 1 2 3 4 5 6 7 8 9 10 11 12 13 14 15 16 17 18 19 20 21 22 23 24 25 26 27 28 29 30 31 32 33 34 35 36 37 38 39 40 41 42 43 44 45 46 47 48 49 50

000
ASUS43 KTOP 251559
RWRKS

WEATHER ROUNDUP FOR KANSAS
NATIONAL WEATHER SERVICE GOODLAND KS
1100 AM CDT TUE JUL 25 2017

NOTE:  "FAIR" INDICATES FEW OR NO CLOUDS BELOW 12,000 FEET WITH NO
SIGNIFICANT WEATHER AND/OR OBSTRUCTIONS TO VISIBILITY.

KSZ001>006-013>018-027>032-041>047-251700-
NORTHWEST KANSAS

CITY           SKY/WX    TMP DP  RH WIND       PRES   REMARKS
GOODLAND       SUNNY     83  67  58 S15G22    30.02S
HAYS           SUNNY     91  68  46 S20G25    30.02F HX  95
HILL CITY      SUNNY     89  70  53 S14G24    30.02S
RUSSELL        SUNNY     89  66  46 S22G28    30.02S
$$

KSZ061>065-074>080-084>089-251700-
SOUTHWEST KANSAS

CITY           SKY/WX    TMP DP  RH WIND       PRES   REMARKS
DODGE CITY     SUNNY     89  67  47 S20G25    30.06S
ELKHART          N/A     84  57  39 S9          N/A
GARDEN CITY    SUNNY     85  67  54 S18       30.05S
GREAT BEND     SUNNY     89  67  47 S18       30.05S
LIBERAL        SUNNY     87  67  51 S17       30.06S
$$

KSZ066>073-081>083-090>101-251700-
SOUTHEAST KANSAS

CITY           SKY/WX    TMP DP  RH WIND       PRES   REMARKS
CHANUTE        SUNNY     89  72  56 S8        30.09S HX  96
COFFEYVILLE    SUNNY     89  73  59 S9        30.08S HX  97
HUTCHINSON     SUNNY     89  68  49 S17       30.05F
MEDICINE LODGE   N/A     88  69  53 S13       30.04S
NEWTON         SUNNY     87  70  56 S16       30.08S
PARSONS        SUNNY     88  73  61 SW6       30.09F HX  95
WICHITA INTL   MOSUNNY   90  70  51 S16       30.06S HX  95
WICHITA JABRA  SUNNY     88  71  57 S16       30.07S
WICHITA MCCONL SUNNY     87  70  56 S13       30.07S
WINFIELD       SUNNY     90  71  53 SW10G20   30.07F HX  96
$$

KSZ007>012-019>026-033>040-048>060-102>105-251700-
NORTHEAST KANSAS

CITY           SKY/WX    TMP DP  RH WIND       PRES   REMARKS
CONCORDIA      SUNNY     89  71  55 S14       30.03S HX  95
EMPORIA        SUNNY     87  71  58 S12       30.07S
LAWRENCE       SUNNY     86  74  67 VRB5      30.06F
MANHATTAN      SUNNY     90  71  53 S10       30.03F HX  96
OLATHE IND     SUNNY     85  73  67 S3        30.09S
OLATHE EXE     SUNNY     83  75  77 VRB6      30.09F
SALINA         SUNNY     93  69  45 S15G23    30.03F HX  98
TOPEKA BILLARD SUNNY     85  75  72 S7        30.05F
TOPEKA FORBES  SUNNY     86  75  69 S6        30.06F HX  95
$$




USA.gov is the U.S. government's official web portal to all federal, state and local government web resources and services.